Vertical_Velocity
-7 3 -18 -10 5 20 28 8 5 -4 8 -0 -3 -4 9 -6 -2 -7 -9 7 -3 -2 5 1 -0 1 -1 -5 8 1 -2 0 3 -2 0 0 0 -2 -1 0 0 -2 1 -2
6 -16 3 4 6 3 18 14 -7 8 12 1 4 -4 9 -6 -3 -10 -8 -3 -1 7 -3 -0 -2 0 2 -42 5 2 1 4 2 -4 2 -2 0 0 -1 1 2 -1 -0 1
2 -7 -4 11 -4 8 -0 4 6 -6 2 5 8 10 2 -3 5 -3 4 18 22 4 2 -2 -0 0 -3 -4 -15 0 4 -0 -1 0 4 -3 -0 1 -1 -1 -0 -0 1 -3
4 -5 5 5 -11 2 8 -8 14 1 6 -13 -2 -6 -2 3 -5 1 -10 6 -6 -2 1 -1 5 -8 0 7 4 1 2 -1 -5 3 3 1 0 0 -3 -2 -0 0 0 -1
-27 -7 6 3 -17 -2 -23 8 -6 4 3 8 3 28 -21 7 -0 -5 -4 -4 6 1 -2 2 3 2 1 4 2 0 1 -5 1 2 -1 -0 -0 -2 -1 -1 -0 1 -0 -0
-19 24 5 -12 -1 10 12 7 2 7 5 10 -1 2 -6 -16 -19 0 5 0 4 1 2 3 9 3 3 8 15 -2 -6 0 6 -4 -1 -1 1 -2 1 -0 -2 -1 -2 -1
-5 -6 8 11 16 6 13 18 10 20 14 -12 -13 21 -16 -6 -8 -7 -2 2 -5 -1 -3 -1 -4 -5 8 -2 8 -0 -1 -0 3 -3 -3 2 -2 1 -0 -1 -5 -0 -3 -1
7 26 -12 -8 4 -27 -22 -15 -21 -13 -4 -11 15 -4 -60 5 9 6 7 3 -1 -5 -3 1 3 0 4 2 5 3 -1 -3 2 -3 -1 -1 -3 1 -4 1 -6 0 -1 -3
-1 -7 9 2 -7 10 -13 22 -20 7 10 15 -10 0 14 -5 -1 3 9 -1 2 3 1 0 -3 -1 1 -1 -1 5 -3 3 0 -1 -4 -1 1 -2 1 1 -7 -1 -0 -3
-1 -7 9 -5 12 15 -36 -25 38 -2 5 3 3 1 -2 -9 -1 -2 7 1 -4 -4 5 -3 -0 2 -0 2 8 3 2 10 2 -0 -1 2 -2 -1 1 3 -5 -3 1 -2
7 4 11 23 3 -15 28 9 10 11 3 -6 -2 -10 4 -8 -1 -3 -1 -9 -7 -5 -13 2 -3 8 7 7 -1 12 5 7 3 -1 -1 -2 -1 1 -1 2 -3 -4 -1 -0
11 0 -6 -20 -25 8 -6 -10 -10 -3 3 -0 1 15 -2 -4 21 3 -5 -0 5 3 -4 2 6 4 2 4 2 -1 3 -3 3 2 2 1 -1 -2 1 1 -2 -3 -4 3
-8 7 5 20 35 7 8 10 -9 5 5 -2 -5 9 2 8 21 11 19 16 5 2 4 3 -1 -7 -3 -4 -1 -3 -2 3 -0 7 -0 -1 -4 -3 1 1 -4 -0 -1 2
3 -1 14 6 -7 -7 9 -0 -0 5 3 -4 1 3 2 -0 1 3 5 4 9 12 12 5 1 3 -1 -0 2 -0 -3 3 3 1 2 -2 -3 1 1 1 -4 1 1 0
-1 1 -1 -6 0 -7 9 -3 2 -2 -8 3 5 -1 -1 2 -0 3 4 6 4 3 -3 1 0 6 5 0 2 8 1 11 2 2 -0 -0 -1 2 -1 -2 -3 1 2 -1
-4 -2 -3 -4 -0 9 10 17 24 42 33 21 19 2 2 -0 2 5 6 9 12 5 -2 8 2 -1 5 3 9 12 0 7 3 -0 2 -1 -0 -1 -0 -1 -3 2 1 -2
-0 0 -1 10 22 1 -18 3 2 1 -1 -3 33 2 3 2 1 4 4 4 3 -5 1 0 -4 3 1 2 5 -3 8 11 2 3 2 3 3 -1 1 1 -1 2 0 -2
-4 3 -2 -1 1 4 12 12 6 5 3 2 2 2 3 5 3 4 2 1 -0 -0 4 -4 -1 -3 -5 2 -1 1 -0 -1 -1 -1 -1 -1 -0 2 0 3 3 2 0 -0
7 2 5 6 3 11 -12 -13 -0 2 6 5 1 1 -0 10 6 5 6 6 3 2 2 4 4 -4 -1 -4 -1 -4 -3 -3 -3 -3 -3 -1 2 -0 0 2 3 0 1 1
2 5 2 -2 -7 3 19 -0 4 4 5 4 3 5 5 -1 14 5 7 7 3 4 4 1 7 4 1 0 1 -1 1 -2 -6 -5 1 3 1 -1 2 3 -0 3 -1 -1
-5 -0 7 6 1 0 14 5 5 1 4 2 5 8 11 5 5 3 2 4 5 4 2 2 2 7 6 4 1 -4 -1 1 7 -2 -2 -2 0 -1 1 -0 -1 1 0 -2
1 2 -3 -4 -8 -5 2 9 -14 9 8 -2 5 10 -6 -1 2 1 2 3 6 5 5 6 2 4 3 1 10 8 6 10 13 -2 1 2 3 4 -3 1 1 -2 -2 -4
-11 7 2 0 21 8 18 12 10 6 6 0 3 5 9 -1 -6 15 -5 -2 -5 -0 -1 2 3 10 6 -5 -8 18 6 12 9 14 2 14 -6 -1 3 2 -1 -3 -3 -3
3 -3 -2 1 6 2 -0 7 7 2 1 3 2 3 2 3 6 5 3 1 4 4 4 -17 6 16 -6 5 -21 37 10 -1 4 12 3 -1 -3 -2 -1 -0 -2 -5 -4 -3
-1 1 9 4 -7 4 -8 -3 8 5 6 6 5 4 4 4 5 5 0 -1 1 0 1 0 -20 -5 6 9 -22 -20 1 -2 9 15 -1 -3 -0 -1 3 2 4 3 6 3
-2 6 -4 9 -6 -2 0 2 4 3 1 -1 0 3 3 3 -0 1 4 6 3 -1 -1 8 6 -0 -6 -10 -3 5 2 -4 14 5 -3 0 3 -2 5 1 0 1 3 3
Height
3024 3026 3023 3024 3028 3031 3038 3040 3043 3048 3053 3057 3060 3067 3073 3079 3084 3089 3094 3098 3101 3105 3109 3114 3117 3120 3125 3130 3136 3141 3145 3149 3154 3158 3161 3164 3166 3168 3170 3172 3174 3175 3176 3177
3022 3015 3018 3025 3028 3031 3033 3035 3039 3045 3049 3051 3056 3060 3068 3070 3076 3083 3087 3091 3096 3098 3103 3107 3111 3117 3121 3126 3130 3138 3142 3147 3152 3155 3158 3161 3163 3166 3168 3170 3172 3173 3174 3175
3013 3012 3014 3017 3021 3025 3027 3029 3034 3038 3043 3047 3052 3057 3060 3063 3070 3077 3081 3086 3090 3091 3097 3102 3108 3113 3116 3121 3128 3134 3139 3144 3148 3153 3155 3158 3161 3164 3166 3168 3170 3171 3172 3174
3007 3008 3009 3010 3013 3019 3020 3027 3032 3035 3036 3036 3043 3041 3049 3056 3061 3068 3075 3078 3082 3084 3090 3098 3105 3108 3113 3120 3124 3131 3136 3140 3145 3150 3153 3156 3159 3161 3164 3166 3168 3169 3171 3173
3001 3001 3002 3003 3004 3012 3015 3024 3028 3032 3032 3034 3036 3039 3036 3048 3051 3056 3063 3069 3073 3078 3085 3093 3100 3104 3109 3117 3122 3128 3133 3138 3143 3147 3150 3153 3157 3159 3162 3163 3165 3166 3168 3171
2995 2996 2996 2998 3002 3007 3014 3020 3026 3030 3031 3028 3025 3032 3027 3031 3038 3049 3057 3061 3065 3073 3080 3088 3095 3099 3107 3114 3119 3125 3130 3135 3140 3144 3147 3151 3154 3157 3159 3160 3162 3163 3165 3167
2988 2989 2990 2994 2998 3003 3008 3013 3016 3024 3025 3017 3023 3027 3022 3026 3034 3041 3049 3053 3059 3068 3075 3082 3088 3094 3101 3107 3114 3121 3127 3132 3137 3142 3145 3149 3151 3154 3156 3159 3160 3161 3163 3165
2978 2980 2984 2986 2988 2993 2998 3004 3003 3007 3005 3009 3014 3016 3018 3025 3030 3037 3046 3049 3055 3063 3070 3077 3083 3089 3096 3103 3111 3117 3123 3128 3133 3139 3143 3146 3149 3152 3155 3157 3159 3160 3162 3164
2976 2972 2975 2982 2985 2990 2993 2997 3000 3000 3002 3005 3010 3016 3018 3022 3025 3031 3039 3042 3049 3057 3064 3072 3079 3087 3095 3100 3107 3113 3120 3125 3130 3136 3140 3143 3146 3150 3152 3154 3157 3159 3161 3162
2976 2973 2970 2976 2982 2985 2988 2991 2994 2996 2997 3000 3000 3007 3009 3016 3020 3025 3032 3037 3043 3053 3061 3068 3075 3084 3091 3098 3103 3112 3116 3122 3127 3131 3136 3140 3143 3146 3149 3152 3155 3157 3158 3160
2973 2974 2967 2972 2974 2977 2984 2989 2993 2995 2995 2992 2995 3002 3009 3012 3016 3021 3026 3032 3040 3049 3056 3065 3072 3080 3086 3092 3100 3108 3113 3118 3123 3127 3132 3136 3139 3142 3146 3149 3152 3154 3156 3158
2972 2971 2968 2966 2972 2976 2981 2982 2988 2990 2994 2995 2995 2999 3002 3010 3018 3020 3025 3032 3038 3045 3053 3061 3067 3074 3080 3089 3096 3102 3107 3113 3119 3123 3127 3131 3135 3139 3142 3145 3148 3150 3153 3154
2971 2970 2966 2965 2971 2973 2977 2982 2988 2991 2994 2995 2997 3001 3001 3007 3013 3017 3022 3028 3035 3043 3049 3056 3062 3069 3078 3086 3091 3097 3103 3107 3114 3119 3122 3126 3131 3135 3138 3142 3144 3146 3148 3150
2971 2968 2967 2962 2965 2971 2975 2981 2985 2991 2994 2994 2996 2999 3000 3003 3007 3012 3017 3024 3032 3038 3046 3052 3058 3066 3074 3081 3086 3093 3098 3103 3108 3112 3116 3122 3126 3131 3134 3137 3140 3141 3144 3146
2970 2966 2965 2964 2966 2969 2974 2978 2984 2988 2993 2995 2997 2998 2998 3000 3005 3009 3014 3022 3027 3032 3041 3047 3054 3062 3070 3076 3081 3087 3092 3096 3100 3106 3111 3116 3122 3126 3129 3133 3135 3137 3139 3142
2970 2968 2964 2963 2966 2972 2976 2979 2984 2989 2993 2995 2997 2998 2998 2999 3002 3007 3011 3018 3024 3032 3039 3043 3049 3056 3064 3071 3076 3081 3086 3091 3095 3099 3105 3110 3116 3120 3124 3127 3129 3132 3135 3137
2971 2969 2967 2964 2967 2971 2979 2987 2985 2987 2990 2993 2997 2999 2999 3000 3001 3005 3009 3014 3020 3025 3031 3038 3047 3052 3057 3064 3069 3075 3081 3086 3090 3093 3098 3103 3109 3114 3118 3121 3123 3126 3130 3132
2971 2970 2971 2967 2966 2973 2991 2990 2991 2991 2991 2993 2996 2998 2999 3001 3003 3004 3007 3012 3018 3024 3028 3033 3039 3045 3051 3056 3063 3069 3074 3079 3084 3089 3093 3099 3103 3108 3112 3115 3118 3121 3124 3127
2974 2973 2972 2970 2968 2985 2988 2991 2993 2993 2996 2996 2997 2999 3000 3003 3004 3007 3008 3012 3016 3021 3026 3031 3036 3041 3045 3052 3058 3065 3071 3075 3080 3085 3090 3095 3099 3103 3107 3109 3113 3117 3119 3122
2979 2976 2976 2973 2981 2992 3000 2991 2993 2993 2999 2999 2998 3001 3001 3003 3013 3012 3012 3013 3016 3020 3024 3028 3033 3037 3041 3048 3054 3061 3067 3072 3077 3082 3086 3091 3096 3099 3102 3106 3110 3112 3115 3117
2984 2982 2982 2983 2986 2997 2995 2992 2995 3000 3009 3002 3001 3002 3005 3006 3008 3009 3012 3015 3018 3020 3023 3025 3029 3033 3038 3043 3049 3056 3062 3068 3073 3079 3083 3087 3092 3095 3098 3101 3104 3107 3109 3112
2992 2993 2992 2994 2995 3006 3002 2996 3000 3006 3005 3004 3002 3001 3003 3005 3006 3006 3011 3015 3018 3021 3024 3026 3029 3032 3035 3040 3046 3049 3056 3060 3068 3072 3078 3082 3087 3090 3093 3096 3099 3101 3103 3106
3001 3005 3005 3004 3014 3018 3010 3006 3006 3005 3005 3005 3005 3006 3006 3007 3010 3008 3010 3014 3017 3021 3025 3027 3030 3034 3036 3038 3042 3045 3051 3056 3061 3067 3073 3077 3082 3085 3088 3090 3093 3095 3097 3100
3014 3013 3013 3015 3018 3015 3011 3010 3009 3007 3006 3007 3006 3006 3007 3007 3007 3009 3011 3013 3016 3017 3023 3026 3029 3033 3034 3037 3042 3044 3049 3054 3058 3062 3067 3072 3076 3079 3082 3084 3087 3089 3092 3095
3024 3022 3023 3023 3022 3020 3015 3013 3011 3009 3008 3007 3007 3007 3008 3008 3010 3011 3012 3014 3016 3017 3018 3022 3028 3032 3035 3038 3038 3043 3046 3050 3052 3057 3061 3064 3069 3072 3075 3077 3081 3084 3087 3089
3029 3029 3030 3031 3029 3028 3024 3019 3015 3012 3009 3008 3008 3009 3008 3009 3009 3010 3011 3012 3013 3015 3018 3020 3022 3024 3026 3034 3036 3040 3043 3045 3048 3051 3054 3058 3061 3065 3067 3070 3074 3077 3079 3082